Weather History for Henderson, KY

Change the Weather History Date:

Saturday, January 19, 2013

  Actual Average Record
Temperature  
Mean Temperature 45 °F -  
Max Temperature 55 °F 39 °F 69 °F (1951)
Min Temperature 35 °F 23 °F -16 °F (1940)
Degree Days  
Heating Degree Days 20    
Moisture  
Dew Point 27 °F    
Average Humidity 51    
Maximum Humidity 57    
Minimum Humidity 44    
Precipitation  
Precipitation 0.00 in - - ()
Sea Level Pressure  
Sea Level Pressure 30.14 in    
Wind  
Wind Speed 16 mph (SW)    
Max Wind Speed 29 mph    
Max Gust Speed 36 mph    
Visibility 10 miles    
Events      
Averages and records for this station are not official NWS values.
T = Trace of Precipitation, MM = Missing Value Source: NWS Daily Summary

Daily Weather History Graph

Daily Weather History Graph

Search for Another Location

Airport:

Trip Planner

Search our weather history database for the weather conditions in past years. The results will help you decide how hot, cold, wet, or windy it might be!

Date:

Astronomy

Jan. 19, 2013 Rise Set
Actual Time 7:03 AM CST 5:00 PM CST
Civil Twilight 6:34 AM CST 5:28 PM CST
Nautical Twilight 6:02 AM CST 6:00 PM CST
Astronomical Twilight 5:31 AM CST 6:32 PM CST
Moon 11:25 AM CST (1/19) 12:38 AM CST (1/19)
Length of Visible Light 10h 53m
Length of Day
9h 56m
First Quarter, 57% of the Moon is Illuminated
Jan 19
First Quarter
Jan 26
Full
Feb 3
Last Quarter
Feb 10
New
Feb 17
First Quarter

Hourly Weather History & Observations

Time (CST) Temp. Windchill Dew Point Humidity Pressure Visibility Wind Dir Wind Speed Gust Speed Precip Events Conditions
12:15 AM 37.4 °F 29.3 °F 21.2 °F 52% 30.26 in 10.0 mi SSW 12.7 mph - N/A   Clear
12:35 AM 39.2 °F 29.8 °F 21.2 °F 49% 30.26 in 10.0 mi SSW 18.4 mph 21.9 mph N/A   Clear
12:55 AM 39.2 °F 30.2 °F 23.0 °F 52% 30.25 in 10.0 mi SSW 17.3 mph - N/A   Clear
1:15 AM 39.2 °F 30.8 °F 21.2 °F 49% 30.25 in 10.0 mi SSW 15.0 mph - N/A   Clear
1:35 AM 39.2 °F 31.2 °F 21.2 °F 49% 30.25 in 10.0 mi SSW 13.8 mph - N/A   Clear
1:55 AM 39.2 °F 30.5 °F 21.2 °F 49% 30.25 in 10.0 mi SSW 16.1 mph - N/A   Clear
2:15 AM 39.2 °F 30.2 °F 23.0 °F 52% 30.25 in 10.0 mi SSW 17.3 mph 21.9 mph N/A   Clear
2:35 AM 39.2 °F 30.8 °F 23.0 °F 52% 30.25 in 10.0 mi SSW 15.0 mph - N/A   Clear
2:55 AM 39.2 °F 32.0 °F 21.2 °F 49% 30.25 in 10.0 mi SW 11.5 mph - N/A   Clear
3:15 AM 37.4 °F 31.4 °F 21.2 °F 52% 30.25 in 10.0 mi WSW 8.1 mph - N/A   Clear
3:35 AM 35.6 °F 29.2 °F 21.2 °F 56% 30.24 in 10.0 mi SW 8.1 mph - N/A   Clear
3:55 AM 35.6 °F 29.2 °F 21.2 °F 56% 30.24 in 10.0 mi SW 8.1 mph - N/A   Clear
4:15 AM 37.4 °F 29.8 °F 21.2 °F 52% 30.24 in 10.0 mi SW 11.5 mph - N/A   Clear
4:35 AM 37.4 °F 30.3 °F 21.2 °F 52% 30.24 in 10.0 mi SW 10.4 mph - N/A   Clear
4:55 AM 35.6 °F 28.0 °F 21.2 °F 56% 30.24 in 10.0 mi SW 10.4 mph - N/A   Clear
5:15 AM 37.4 °F 29.3 °F 21.2 °F 52% 30.23 in 10.0 mi SSW 12.7 mph - N/A   Clear
5:35 AM 37.4 °F 28.9 °F 23.0 °F 56% 30.23 in 10.0 mi SSW 13.8 mph - N/A   Clear
6:15 AM 37.4 °F 28.5 °F 23.0 °F 56% 30.23 in 10.0 mi SSW 15.0 mph - N/A   Clear
6:35 AM 37.4 °F 28.5 °F 21.2 °F 52% 30.23 in 10.0 mi SSW 15.0 mph - N/A   Clear
6:55 AM 37.4 °F 29.8 °F 21.2 °F 52% 30.23 in 10.0 mi SSW 11.5 mph 19.6 mph N/A   Clear
7:15 AM 37.4 °F 29.3 °F 23.0 °F 56% 30.23 in 10.0 mi SW 12.7 mph - N/A   Clear
7:35 AM 37.4 °F 29.3 °F 23.0 °F 56% 30.23 in 10.0 mi SW 12.7 mph 18.4 mph N/A   Clear
7:55 AM 39.2 °F 30.2 °F 24.8 °F 56% 30.22 in 10.0 mi SSW 17.3 mph 21.9 mph N/A   Clear
8:15 AM 39.2 °F 30.5 °F 24.8 °F 56% 30.23 in 10.0 mi SW 16.1 mph - N/A   Clear
8:35 AM 41.0 °F 31.6 °F 24.8 °F 53% 30.22 in 10.0 mi SSW 20.7 mph 25.3 mph N/A   Clear
8:55 AM 42.8 °F 34.5 °F 26.6 °F 53% 30.22 in 10.0 mi SSW 18.4 mph 26.5 mph N/A   Clear
9:15 AM - - - N/A% 30.21 in 10.0 mi SSW 23.0 mph 28.8 mph N/A   Clear
9:35 AM - - - N/A% 30.21 in 10.0 mi SSW 23.0 mph 28.8 mph N/A   Clear
9:55 AM 46.4 °F 38.5 °F 28.4 °F 50% 30.21 in 10.0 mi SSW 21.9 mph 26.5 mph N/A   Clear
10:15 AM 46.4 °F 38.7 °F 28.4 °F 50% 30.20 in 10.0 mi SSW 20.7 mph 29.9 mph N/A   Clear
10:36 AM 48.2 °F - 30.2 °F 50% 30.19 in 10.0 mi SSW 19.6 mph 27.6 mph N/A   Clear
10:55 AM - - - N/A% 30.17 in 10.0 mi SW 20.7 mph 31.1 mph N/A   Clear
11:35 AM - - - N/A% 30.14 in 10.0 mi SSW 23.0 mph 28.8 mph N/A   Clear
11:55 AM 53.6 °F - 32.0 °F 44% 30.12 in 10.0 mi SSW 19.6 mph 27.6 mph N/A   Clear
12:15 PM - - - N/A% 30.10 in 10.0 mi SW 23.0 mph 33.4 mph N/A   Clear
12:35 PM - - - N/A% 30.09 in 10.0 mi SSW 24.2 mph 33.4 mph N/A   Clear
12:55 PM - - - N/A% 30.08 in 10.0 mi SSW 25.3 mph 29.9 mph N/A   Clear
1:15 PM - - - N/A% 30.07 in 10.0 mi SSW 18.4 mph 28.8 mph N/A   Clear
1:35 PM - - - N/A% 30.06 in 10.0 mi SSW 28.8 mph 33.4 mph N/A   Clear
1:55 PM - - - N/A% 30.05 in 10.0 mi SSW 27.6 mph 35.7 mph N/A   Clear
2:15 PM 55.4 °F - 33.8 °F 44% 30.05 in 10.0 mi SSW 25.3 mph 32.2 mph N/A   Clear
2:35 PM 55.4 °F - 33.8 °F 44% 30.04 in 10.0 mi SSW 18.4 mph 34.5 mph N/A   Clear
2:55 PM 55.4 °F - 33.8 °F 44% 30.03 in 10.0 mi SSW 20.7 mph 31.1 mph N/A   Clear
3:15 PM 55.4 °F - 33.8 °F 44% 30.03 in 10.0 mi SSW 21.9 mph 29.9 mph N/A   Clear
3:35 PM 55.4 °F - 33.8 °F 44% 30.03 in 10.0 mi SSW 24.2 mph 28.8 mph N/A   Clear
3:55 PM 53.6 °F - 33.8 °F 47% 30.02 in 10.0 mi SSW 20.7 mph 26.5 mph N/A   Clear
4:15 PM 53.6 °F - 32.0 °F 44% 30.01 in 10.0 mi SSW 21.9 mph 27.6 mph N/A   Clear
4:35 PM 51.8 °F - 32.0 °F 47% 30.01 in 10.0 mi SSW 21.9 mph 27.6 mph N/A   Clear
4:55 PM 51.8 °F - 30.2 °F 44% 30.00 in 10.0 mi SSW 18.4 mph 25.3 mph N/A   Clear
5:15 PM 51.8 °F - 30.2 °F 44% 30.01 in 10.0 mi SSW 17.3 mph 24.2 mph N/A   Clear
5:35 PM 50.0 °F - 30.2 °F 47% 30.03 in 10.0 mi SW 13.8 mph - N/A   Clear
5:55 PM 48.2 °F - 30.2 °F 50% 30.04 in 10.0 mi SW 17.3 mph - N/A   Clear
6:15 PM 48.2 °F - 30.2 °F 50% 30.04 in 10.0 mi SW 17.3 mph - N/A   Clear
6:35 PM 48.2 °F - 30.2 °F 50% 30.05 in 10.0 mi SW 16.1 mph - N/A   Clear
6:55 PM 48.2 °F - 30.2 °F 50% 30.05 in 10.0 mi SW 15.0 mph - N/A   Clear
7:15 PM 46.4 °F 40.1 °F 30.2 °F 53% 30.05 in 10.0 mi SW 15.0 mph - N/A   Clear
7:35 PM 46.4 °F 40.1 °F 30.2 °F 53% 30.06 in 10.0 mi SW 15.0 mph - N/A   Clear
7:55 PM 46.4 °F 40.1 °F 28.4 °F 50% 30.06 in 10.0 mi SW 15.0 mph - N/A   Clear
8:15 PM 46.4 °F 39.5 °F 28.4 °F 50% 30.06 in 10.0 mi SW 17.3 mph - N/A   Clear
8:35 PM 46.4 °F 39.5 °F 30.2 °F 53% 30.06 in 10.0 mi SW 17.3 mph 24.2 mph N/A   Clear
8:55 PM 46.4 °F 39.5 °F 30.2 °F 53% 30.06 in 10.0 mi SW 17.3 mph 21.9 mph N/A   Clear
9:15 PM 46.4 °F 39.2 °F 30.2 °F 53% 30.07 in 10.0 mi SW 18.4 mph 23.0 mph N/A   Clear
9:35 PM 46.4 °F 39.8 °F 30.2 °F 53% 30.07 in 10.0 mi SW 16.1 mph - N/A   Clear
9:55 PM 46.4 °F 39.8 °F 30.2 °F 53% 30.07 in 10.0 mi SW 16.1 mph - N/A   Clear
10:15 PM 44.6 °F 37.8 °F 30.2 °F 57% 30.08 in 10.0 mi WSW 15.0 mph - N/A   Clear
10:35 PM 44.6 °F 37.4 °F 30.2 °F 57% 30.09 in 10.0 mi WSW 16.1 mph - N/A   Clear
10:55 PM 44.6 °F 37.4 °F 30.2 °F 57% 30.09 in 10.0 mi WSW 16.1 mph 21.9 mph N/A   Clear
11:15 PM 44.6 °F 37.8 °F 30.2 °F 57% 30.08 in 10.0 mi SW 15.0 mph 20.7 mph N/A   Clear
11:35 PM 44.6 °F 37.8 °F 30.2 °F 57% 30.08 in 10.0 mi WSW 15.0 mph - N/A   Clear